[[{"header":{"parameterUnit":"m.s-1","parameterCategory":1,"la1":30.2991,"la2":30.254,"lo1":-89.0895,"lo2":-89.0444,"dy":0.0017,"dx":0.0017,"nx":28,"ny":28,"refTime":"2024-08-02T09:00:00:Z","depth":0,"parameterNumber":2,"parameterNumberName":"U-component_of_WINDS"},"data":[0,0,0,0,0,0,0,0,0,0,0,0,0,0,0,0,0,0,0,0,0,0,0,0,0,0,0,0,0,0,0,0,0,0,0,0,0,0,0,0,0,0,0,0,0,0,0,0,0,0,0,0,0,0,0,0,0,0,1.8651,1.8652,0,1.8724,1.8725,1.8726,1.8719,1.8717,1.8716,1.8715,1.8796,1.8799,1.8802,0,0,0,0,0,0,0,0,0,0,0,0,0,1.8509,1.8511,1.8651,1.8652,1.8653,1.8724,1.8725,1.8726,1.8719,1.8717,1.8716,1.8715,1.8795,1.8799,1.8803,0,0,0,0,0,0,0,0,0,0,0,0,0,1.8575,1.8512,1.8651,1.8657,1.8659,1.8724,1.8725,1.8727,1.8719,1.8717,1.8716,1.8714,1.8794,1.8798,1.8803,1.8868,0,0,1.8818,1.882,0,0,0,0,0,0,0,0,1.8572,1.8581,1.8655,1.8657,1.8659,1.871,1.8705,1.8774,1.872,1.8696,1.8715,1.8713,1.8769,1.8776,1.8794,1.8872,1.8875,1.8818,1.8821,1.8823,1.8825,0,0,0,0,0,0,0,1.8567,1.8577,1.868,1.8657,1.8659,1.8658,1.8666,1.8718,1.8742,1.8698,1.8698,1.8706,1.877,1.8789,1.8796,1.8877,1.8818,1.8823,1.8826,1.8827,1.9013,1.9015,0,0,0,0,0,0,1.856,1.8574,1.8678,1.8682,1.861,1.8662,1.8671,1.8696,1.8741,1.8746,1.8708,1.8706,1.8782,1.879,1.8798,1.8878,1.8823,1.8828,1.8831,1.9011,1.9014,1.9016,0,0,0,0,0,0,1.8557,1.8569,1.8675,1.8628,1.8641,1.8667,1.8695,1.8698,1.8717,1.8748,1.8753,1.8723,1.8781,1.8792,1.8851,1.8881,1.883,1.8835,1.9009,1.9012,1.9015,1.9038,0,0,0,0,0,0,1.8553,1.8568,1.8592,1.8628,1.8644,1.8724,1.8697,1.8701,1.8725,1.8723,1.8764,1.8769,1.878,1.8844,1.8856,1.8887,1.8838,1.9006,1.901,1.9014,1.9035,1.9042,1.9048,0,0,0,0,0,1.8548,1.8597,1.8593,1.8606,1.8674,1.8726,1.8735,1.8745,1.8727,1.8753,1.8773,1.8768,1.8876,1.885,1.8863,1.8896,1.9004,1.9009,1.9014,1.9032,1.904,1.9047,0,0,0,0,0,0,1.8565,1.8601,1.8598,1.866,1.8689,1.8724,1.8756,1.8754,1.8791,1.8787,1.88,1.881,1.887,1.8889,1.8859,1.8962,1.8938,1.8945,1.8947,1.8956,1.8962,1.8956,1.8842,0,0,0,0,0,1.8575,1.8613,1.8644,1.8695,1.871,1.8731,1.8754,1.8759,1.8791,1.8805,1.8829,1.8862,1.8903,1.8931,1.897,1.9038,1.9047,1.9067,1.9074,1.9079,1.9085,1.9123,1.9133,1.9031,1.9031,1.9031,0,0,1.8598,1.8623,1.8646,1.8699,1.8723,1.8764,1.8741,1.8785,1.8816,1.8812,1.8869,1.8888,1.8926,1.8989,1.9019,1.9007,1.9115,1.9084,1.9088,1.9092,1.9129,1.9139,1.9147,1.9034,1.9033,1.9033,0,0,1.866,1.8682,1.8728,1.8752,1.8788,1.8801,1.8812,1.8848,1.886,1.8917,1.8915,1.8952,1.9023,1.905,1.9074,1.9147,1.9144,1.916,1.9193,1.923,1.9238,1.9245,1.9272,1.9282,1.9166,1.9166,1.9166,0,1.8684,1.8743,1.8752,1.8796,1.882,1.8817,1.8864,1.8888,1.8935,1.8953,1.8939,1.9028,1.9053,1.9124,1.9142,1.916,1.9174,1.9155,1.9236,1.9243,1.925,1.9276,1.9286,1.9168,1.9167,1.9167,1.9167,0,1.8772,1.8813,1.8846,1.8891,1.8919,1.8964,1.8981,1.9009,1.9012,1.9027,1.9087,1.9116,1.9163,1.918,1.9184,1.9251,1.9243,1.9232,1.9208,1.9261,1.9286,1.9296,1.917,1.9169,1.9169,1.9168,0,0,1.8847,1.8895,1.8907,1.8928,1.8968,1.9001,1.9047,1.909,1.9114,1.9148,1.9188,1.9248,1.9238,1.9265,1.9272,1.9304,1.9361,1.929,1.9291,1.9303,1.9439,1.9447,1.9458,1.936,1.9361,1.9363,1.9436,0,1.8913,1.8993,1.9002,1.9074,1.9114,1.9111,1.9152,1.9182,1.9197,1.9234,1.9253,1.9295,1.9279,1.9295,1.9327,1.9348,1.9389,1.9342,1.9399,1.94,1.9389,1.9471,1.9479,1.9547,1.9445,1.9447,1.9448,0,1.9002,1.9036,1.9112,1.9146,1.9163,1.9199,1.924,1.9275,1.931,1.9319,1.9348,1.9351,1.9401,1.9374,1.9444,1.9412,1.9435,1.9449,1.9452,1.9458,1.9428,1.948,1.9568,1.9578,1.9463,1.9462,1.9461,0,1.905,1.9115,1.9169,1.9187,1.9228,1.9254,1.9273,1.9305,1.9331,1.9368,1.9385,1.9427,1.9451,1.9484,1.95,1.9479,1.9569,1.9543,1.9579,1.9579,1.9598,1.9597,1.9692,1.9613,1.9613,1.9612,1.9612,0,1.9123,1.917,1.9191,1.9224,1.9277,1.9288,1.934,1.9358,1.9387,1.9425,1.9426,1.9462,1.948,1.9519,1.9531,1.9587,1.9598,1.9608,1.9611,1.9608,1.9607,1.9624,1.962,1.9615,1.9614,1.9614,1.9613,0,1.9186,1.9201,1.926,1.9295,1.9305,1.9342,1.9372,1.9405,1.9421,1.9469,1.9481,1.9506,1.9552,1.957,1.9627,1.9635,1.97,1.9699,1.9688,1.9689,1.9724,1.9721,1.9834,1.985,1.976,1.976,1.9761,0,1.9232,1.9267,1.9306,1.933,1.935,1.939,1.9416,1.9429,1.9456,1.9498,1.9527,1.9572,1.9609,1.9684,1.9708,1.9751,1.9752,1.9789,1.9759,1.9755,1.9753,1.9751,1.9755,1.9794,1.9795,1.9796,1.9797,0,1.9312,1.9319,1.9355,1.9395,1.9426,1.9459,1.9491,1.9511,1.9529,1.956,1.9607,1.9635,1.9693,1.9739,1.9784,1.9805,1.9805,1.9806,1.9817,1.9814,1.9806,1.9812,1.9704,1.9803,1.9803,1.9802,1.9802,1.9802,1.9369,1.94,1.9432,1.9474,1.9499,1.9528,1.9561,1.958,1.9619,1.9665,1.9671,1.9721,1.9756,1.9816,1.9839,1.988,1.987,1.9886,1.989,1.9893,1.9896,1.98,1.9888,1.9888,1.9888,1.9887,1.9887,0,1.945,1.947,1.9508,1.9552,1.9585,1.958,1.9615,1.9643,1.9687,1.9718,1.9754,1.9808,1.9853,1.988,1.9926,1.9953,1.9954,1.9964,1.9962,1.9968,1.9901,1.9888,1.9963,1.9963,1.9963,1.9963,1.9963,1.9963,1.9496,1.9549,1.9559,1.9626,1.9647,1.9694,1.9715,1.9743,1.9768,1.9828,1.9864,1.9881,1.9912,1.9959,2.0,2.0007,2.0024,2.0036,2.0042,1.998,1.9972,1.9965,1.9952,2.0039,2.0039,2.0105,2.0105,2.0106]},{"header":{"parameterUnit":"m.s-1","parameterCategory":1,"la1":30.2991,"la2":30.254,"lo1":-89.0895,"lo2":-89.0444,"dy":0.0017,"dx":0.0017,"nx":28,"ny":28,"refTime":"2024-08-02T09:00:00:Z","depth":0,"parameterNumber":3,"parameterNumberName":"V-component_of_WINDS"},"data":[0,0,0,0,0,0,0,0,0,0,0,0,0,0,0,0,0,0,0,0,0,0,0,0,0,0,0,0,0,0,0,0,0,0,0,0,0,0,0,0,0,0,0,0,0,0,0,0,0,0,0,0,0,0,0,0,0,0,3.7157,3.7158,0,3.731,3.7312,3.7314,3.7331,3.7329,3.7328,3.7326,3.7477,3.7482,3.7487,0,0,0,0,0,0,0,0,0,0,0,0,0,3.6867,3.6872,3.7156,3.7158,3.716,3.731,3.7312,3.7314,3.7331,3.7329,3.7328,3.7326,3.7475,3.7481,3.7488,0,0,0,0,0,0,0,0,0,0,0,0,0,3.7004,3.6874,3.7156,3.7187,3.7191,3.731,3.7312,3.7315,3.7332,3.7329,3.7327,3.7325,3.7473,3.7481,3.7489,3.7585,0,0,3.7514,3.7517,0,0,0,0,0,0,0,0,3.6996,3.7014,3.7181,3.7185,3.719,3.7299,3.7265,3.7405,3.7332,3.7278,3.7326,3.7324,3.7419,3.7432,3.7465,3.7592,3.7598,3.7514,3.7519,3.7523,3.7525,0,0,0,0,0,0,0,3.6986,3.7008,3.7217,3.7183,3.7189,3.719,3.7207,3.7292,3.7359,3.7283,3.7284,3.7303,3.7421,3.7457,3.7469,3.76,3.7514,3.7521,3.7526,3.753,3.7806,3.7808,0,0,0,0,0,0,3.6972,3.7,3.7212,3.7222,3.7086,3.7197,3.7216,3.7266,3.7359,3.737,3.7304,3.7303,3.7444,3.7459,3.7474,3.7588,3.7523,3.753,3.7535,3.7803,3.7806,3.7809,0,0,0,0,0,0,3.6966,3.6991,3.7206,3.7111,3.7139,3.7204,3.7261,3.7271,3.7307,3.7375,3.7386,3.733,3.7443,3.7463,3.7556,3.7594,3.7534,3.7541,3.78,3.7804,3.7808,3.7819,0,0,0,0,0,0,3.6958,3.6989,3.7029,3.7112,3.7144,3.7289,3.7264,3.7275,3.7322,3.7321,3.7402,3.7413,3.7443,3.7544,3.7564,3.7604,3.7548,3.7797,3.7802,3.7806,3.7816,3.7823,3.7829,0,0,0,0,0,3.6948,3.7026,3.7031,3.7057,3.7196,3.7291,3.7309,3.7344,3.7325,3.7363,3.7406,3.741,3.7586,3.7553,3.7576,3.7619,3.7795,3.7801,3.7806,3.7813,3.7822,3.7829,0,0,0,0,0,0,3.6945,3.7038,3.7044,3.7153,3.7214,3.7294,3.7344,3.7353,3.742,3.7416,3.7455,3.7472,3.7563,3.76,3.7562,3.7713,3.7688,3.7699,3.7685,3.7694,3.7701,3.7689,3.7555,0,0,0,0,0,3.6957,3.703,3.7106,3.7194,3.7225,3.7279,3.7322,3.7343,3.7407,3.7433,3.7483,3.7542,3.761,3.7654,3.7722,3.7821,3.7836,3.7861,3.7868,3.7873,3.7881,3.793,3.7941,3.7827,3.7827,3.7827,0,0,3.6983,3.7043,3.7086,3.7195,3.7245,3.7315,3.7301,3.7377,3.7428,3.7444,3.7534,3.7572,3.7641,3.7736,3.7781,3.777,3.7915,3.788,3.7883,3.7889,3.7937,3.7948,3.7957,3.7831,3.783,3.7829,0,0,3.7066,3.712,3.7197,3.7247,3.7322,3.7357,3.7375,3.7453,3.7479,3.7571,3.7582,3.7642,3.776,3.7807,3.7846,3.7939,3.7944,3.796,3.7994,3.8042,3.8051,3.8059,3.8088,3.8099,3.7968,3.7968,3.7968,0,3.7088,3.7198,3.7235,3.731,3.7355,3.7373,3.7448,3.7493,3.7586,3.7615,3.7602,3.7747,3.7795,3.7898,3.7921,3.7953,3.7971,3.7951,3.8047,3.8055,3.8063,3.8092,3.8103,3.7969,3.7969,3.7969,3.7969,0,3.7218,3.7293,3.7346,3.7435,3.7486,3.7561,3.7606,3.7652,3.7667,3.7702,3.7791,3.7848,3.7925,3.7951,3.7968,3.8055,3.8046,3.804,3.8015,3.8075,3.8102,3.8113,3.7971,3.797,3.797,3.797,0,0,3.7306,3.7412,3.7431,3.7469,3.7551,3.7608,3.7681,3.7757,3.7793,3.7855,3.7914,3.8011,3.8004,3.8048,3.8069,3.8111,3.8176,3.8099,3.8101,3.8108,3.827,3.8273,3.8285,3.8179,3.8181,3.8183,3.8263,0,3.7395,3.7529,3.7562,3.7674,3.774,3.7755,3.7817,3.7872,3.7905,3.7963,3.7998,3.8064,3.8053,3.8078,3.8121,3.8159,3.8208,3.8154,3.823,3.8232,3.8211,3.83,3.8305,3.8378,3.8275,3.8276,3.8278,0,3.7519,3.7583,3.7701,3.777,3.7799,3.7855,3.7924,3.7981,3.8041,3.8061,3.8108,3.8124,3.8194,3.8167,3.8262,3.8224,3.8256,3.8279,3.8282,3.829,3.8258,3.8307,3.8403,3.8412,3.8296,3.8294,3.8293,0,3.7566,3.7682,3.7767,3.7799,3.7883,3.7921,3.7956,3.8014,3.8056,3.8115,3.8141,3.8207,3.8243,3.8291,3.8322,3.83,3.8413,3.8389,3.8428,3.8427,3.8451,3.8449,3.855,3.8475,3.8475,3.8475,3.8475,0,3.7661,3.7732,3.7788,3.784,3.7918,3.7953,3.8028,3.8064,3.8114,3.8169,3.8186,3.8236,3.8275,3.833,3.8354,3.8426,3.8443,3.8458,3.8463,3.8456,3.8453,3.8477,3.8471,3.8478,3.8477,3.8477,3.8476,0,3.7727,3.7769,3.7861,3.7931,3.795,3.8004,3.8062,3.811,3.8142,3.8211,3.823,3.8278,3.8343,3.8379,3.846,3.8476,3.8556,3.856,3.8536,3.8538,3.8574,3.8568,3.8692,3.8708,3.8625,3.8626,3.8626,0,3.7785,3.7839,3.7914,3.7954,3.799,3.8053,3.8095,3.813,3.8172,3.8241,3.828,3.8346,3.84,3.8502,3.8543,3.8603,3.8607,3.8646,3.8616,3.8605,3.8603,3.8599,3.8602,3.865,3.8651,3.8652,3.8652,0,3.788,3.7897,3.7958,3.8025,3.8075,3.8129,3.8182,3.8212,3.8254,3.83,3.8367,3.841,3.8491,3.8555,3.8618,3.865,3.8657,3.8661,3.8673,3.8665,3.8648,3.8654,3.8547,3.8658,3.8658,3.8657,3.8657,3.8657,3.7942,3.7989,3.8048,3.8114,3.8158,3.8206,3.8253,3.829,3.8347,3.8418,3.8434,3.8503,3.8555,3.8641,3.8674,3.8726,3.8718,3.8736,3.874,3.8743,3.8743,3.8641,3.8738,3.8738,3.8738,3.8737,3.8737,0,3.8035,3.8073,3.8133,3.8207,3.8257,3.8261,3.8318,3.8359,3.8421,3.847,3.8523,3.8596,3.8657,3.87,3.8761,3.8793,3.8797,3.8808,3.8805,3.8811,3.8748,3.8731,3.8803,3.8803,3.8803,3.8803,3.8803,3.8803,3.809,3.8168,3.8191,3.8289,3.8326,3.8395,3.8427,3.8469,3.8508,3.8591,3.8642,3.867,3.8715,3.8778,3.8832,3.8843,3.8863,3.8872,3.8883,3.8823,3.8816,3.8809,3.8793,3.8877,3.8877,3.8941,3.8941,3.8942]}]]